Location: The Saddle
(36.8333°N, 80.3417°W)
Time: 09:07:26
(UTC-05:00)

A-11 Canister half - Pass Details

Date: 12 December 2023
Orbit: 1512 x 1687 km, 47.2° (Epoch: 27 February)

Event Time Altitude Azimuth Distance (km) Brightness Sun altitude
Rises 02:14:36 0° 291° (WNW) 4,762 - -60.8°
Reaches altitude 10° 02:17:50 10° 297° (WNW) 3,801 - -60.2°
Maximum altitude 02:27:10 49° 10° (N) 2,033 - -58.4°
Exits shadow 02:33:21 23° 73° (ENE) 2,974 10.7 -57.2°
Drops below altitude 10° 02:36:49 10° 84° (E) 3,922 11.5 -56.6°
Sets 02:40:12 0° 90° (E) 4,924 12.2 -55.9°
